Regional Weather Roundup
Issued by NWS Albany, NY

Home | Current Version | Previous Version | Text Only | Print | Product List | Glossary On
Versions: 1 2 3 4 5 6 7 8 9 10 11 12 13 14 15 16 17 18 19 20 21 22 23 24 25 26 27
000
ASUS41 KALY 281410
RWRALY

NEW YORK STATE HOURLY WEATHER ROUNDUP
NATIONAL WEATHER SERVICE ALBANY NY
1000 AM EDT THU JUL 28 2016

NOTE: "FAIR" INDICATES FEW OR NO CLOUDS BELOW 12,000 FEET WITH NO
SIGNIFICANT WEATHER AND/OR NO OBSTRUCTIONS TO VISIBILITY.

NYZ032-033-038>043-046>054-057>066-NYZ062>081-082-084-281500-
EAST


CITY           SKY/WX    TMP DP  RH WIND       PRES   REMARKS
ALBANY         CLOUDY    80  64  58 SW3       29.93S
GLENS FALLS    PTSUNNY   76  65  68 SE5       29.91F
POUGHKEEPSIE   MOSUNNY   82  65  56 CALM      29.92F
NEWBURGH       MOSUNNY   79  66  65 W5        29.96S
MONTGOMERY     MOSUNNY   80  68  66 CALM      29.94S
WHITE PLAINS   MOSUNNY   84  67  56 N3        29.93F
ISLIP          PTSUNNY   88  66  48 VRB3      29.91F HX  90
NEW YORK CITY  PTSUNNY   88  66  48 CALM      29.91F HX  90
CENTRAL PARK   MOSUNNY   85  63  47 W3        29.95S
$$

NYZ005>009-017-018-044>046-055-056-281500-
CENTRAL


CITY           SKY/WX    TMP DP  RH WIND       PRES   REMARKS
FULTON         CLOUDY    80  66  62 W5        29.93S
SYRACUSE       CLOUDY    79  64  60 CALM      29.92S
ROME           CLOUDY    76  66  71 CALM      29.94F
ELMIRA         CLOUDY    74  62  66 W3        29.95F
BINGHAMTON     PTSUNNY   74  63  68 SE3       29.98F
MONTICELLO     MOSUNNY   79  64  61 CALM      30.00S
$$

NYZ026>034-041>043-087-281500-
NORTH


CITY           SKY/WX    TMP DP  RH WIND       PRES   REMARKS
WATERTOWN      MOSUNNY   76  68  76 SW8       29.91S
FORT DRUM      NOT AVBL
MASSENA        MOSUNNY   74  66  76 E3        29.91S
SARANAC LAKE   MOSUNNY   71  63  75 CALM      29.95S
PLATTSBURGH    MOSUNNY   74  67  78 E3        29.89S
$$

NYZ001>004-010>016-019>021-085-281500-
WEST


CITY           SKY/WX    TMP DP  RH WIND       PRES   REMARKS
NIAGARA FALLS  PTSUNNY   80  66  62 VRB5      29.93F
BUFFALO        PTSUNNY   77  64  64 CALM      29.93F
DUNKIRK        PTSUNNY   80  66  62 CALM      29.93F
JAMESTOWN      MOSUNNY   72  64  78 NE3       29.99F
WELLSVILLE     PTSUNNY   72  64  76 CALM      30.02F
ROCHESTER      PTSUNNY   80  63  55 CALM      29.94S
PENN YAN       PTSUNNY   76  63  64 W3        29.96S
$$

             KEY
       WCI = WIND CHILL INDEX
       VSB = VISIBILITY
       HX  = HEAT INDEX
$$




USA.gov is the U.S. government's official web portal to all federal, state and local government web resources and services.